FW3223 Weather Reports


time (UTC)temp
C
wind
direction
speed
KPH
gust
KPH
rain 1hr
cm
rain 24hr
cm
rain mn
cm
humidity
%
barometer
mb
20200224190032 16 165 0.0 3.2 0.00 0.00 0.00 38 1028.9
20200224184626 16 346 1.6 16.1 0.00 0.00 0.00 32 1028.8
20200224183029 17 63 3.2 9.7 0.00 0.00 0.00 36 1028.8
20200224181617 17 331 8.0 20.9 0.00 0.00 0.00 32 1028.6
20200224180138 18 309 3.2 14.5 0.00 0.00 0.00 28 1028.6
20200224174555 19 355 9.7 19.3 0.00 0.00 0.00 31 1028.4
20200224173210 19 36 6.4 16.1 0.00 0.00 0.00 30 1028.4
20200224171540 20 27 8.0 19.3 0.00 0.00 0.00 28 1028.4
20200224170111 20 326 8.0 22.5 0.00 0.00 0.00 24 1028.4
20200224164626 20 334 6.4 22.5 0.00 0.00 0.00 20 1028.2
20200224163040 20 341 8.0 17.7 0.00 0.00 0.00 26 1028.4
20200224161724 20 355 9.7 20.9 0.00 0.00 0.00 30 1028.4
20200224160011 20 5 6.4 16.1 0.00 0.00 0.00 36 1028.5
20200224154649 20 23 8.0 16.1 0.00 0.00 0.00 34 1028.6
20200224153012 20 355 6.4 19.3 0.00 0.00 0.00 36 1028.7
20200224151615 20 54 4.8 17.7 0.00 0.00 0.00 38 1028.9
20200224144541 20 5 6.4 16.1 0.00 0.00 0.00 44 1029.0
20200224143106 18 31 3.2 14.5 0.00 0.00 0.00 54 1029.1
20200224141535 17 182 3.2 6.4 0.00 0.00 0.00 57 1029.2
20200224140137 17 177 1.6 4.8 0.00 0.00 0.00 59 1029.4
20200224134514 15 246 0.0 9.7 0.00 0.00 0.00 66 1029.6
20200224133121 15 222 4.8 9.7 0.00 0.00 0.00 67 1030.1
20200224131531 15 248 6.4 12.9 0.00 0.00 0.00 67 1030.2
20200224130251 15 250 8.0 16.1 0.00 0.00 0.00 66 1030.5
20200224124537 15 257 11.3 16.1 0.00 0.00 0.00 65 1030.9
20200224123140 15 254 9.7 16.1 0.00 0.00 0.00 64 1031.0
20200224121509 14 260 16.1 19.3 0.00 0.00 0.00 64 1031.4
20200224120112 15 254 12.9 17.7 0.00 0.00 0.00 64 1031.5
20200224113057 15 285 6.4 12.9 0.00 0.00 0.00 60 1031.9
20200224111502 15 320 3.2 11.3 0.00 0.00 0.00 60 1031.7
20200224110042 15 252 3.2 9.7 0.00 0.00 0.00 60 1031.8
20200224104612 15 244 6.4 8.0 0.00 0.00 0.00 59 1031.7
20200224103039 16 229 4.8 8.0 0.00 0.00 0.00 54 1031.6
20200224101648 17 153 0.0 3.2 0.00 0.00 0.00 53 1031.6
20200224100049 17 153 1.6 4.8 0.00 0.00 0.00 54 1031.6
20200224094616 16 150 0.0 4.8 0.00 0.00 0.00 56 1031.7
20200224093024 16 145 0.0 3.2 0.00 0.00 0.00 57 1031.9
20200224090004 15 92 0.0 6.4 0.00 0.00 0.00 56 1031.5
20200224084622 15 85 0.0 3.2 0.00 0.00 0.00 58 1031.3
20200224083005 14 34 0.0 1.6 0.00 0.00 0.00 61 1031.1
20200224081630 13 34 0.0 3.2 0.00 0.00 0.00 62 1031.1
20200224074557 12 34 0.0 3.2 0.00 0.00 0.00 63 1030.4
20200224073125 12 34 0.0 4.8 0.00 0.00 0.00 63 1030.3
20200224071532 12 11 3.2 6.4 0.00 0.00 0.00 64 1030.3
20200224064543 12 63 3.2 4.8 0.00 0.00 0.00 64 1030.2
20200224063246 12 78 0.0 1.6 0.00 0.00 0.00 63 1030.2
20200224061546 12 79 1.6 4.8 0.00 0.00 0.00 63 1030.3
20200224060119 12 78 0.0 6.4 0.00 0.00 0.00 62 1030.4
20200224054529 13 63 0.0 4.8 0.00 0.00 0.00 62 1030.4
20200224053229 13 71 3.2 6.4 0.00 0.00 0.00 61 1030.3
20200224051520 13 64 3.2 8.0 0.00 0.00 0.00 60 1030.2
20200224050126 13 53 4.8 9.7 0.00 0.00 0.00 58 1030.1
20200224044509 13 63 3.2 8.0 0.00 0.00 0.00 56 1030.1
20200224043107 13 126 0.0 6.4 0.00 0.00 0.00 54 1030.0
20200224041511 14 184 3.2 6.4 0.00 0.00 0.00 59 1029.8
20200224040129 14 28 0.0 0.0 0.00 0.00 0.00 50 1029.7
20200224034814 14 28 0.0 0.0 0.00 0.00 0.00 50 1029.8
20200224033108 14 28 0.0 0.0 0.00 0.00 0.00 51 1030.0
20200224030037 14 28 0.0 0.0 0.00 0.00 0.00 50 1030.1
20200224024632 15 28 0.0 0.0 0.00 0.00 0.00 49 1030.3
20200224023040 15 28 1.6 3.2 0.00 0.00 0.00 49 1030.3
20200224021728 15 28 0.0 0.0 0.00 0.00 0.00 49 1030.4
20200224020028 15 28 0.0 0.0 0.00 0.00 0.00 50 1030.4
20200224014647 15 28 0.0 0.0 0.00 0.00 0.00 50 1030.6
20200224013041 15 28 0.0 0.0 0.00 0.00 0.00 49 1030.6
20200224011627 15 28 0.0 0.0 0.00 0.00 0.00 50 1030.6
20200224010010 15 28 0.0 0.0 0.00 0.00 0.00 50 1030.9
20200224004549 15 28 0.0 0.0 0.00 0.00 0.00 51 1030.9
20200224003023 16 28 0.0 1.6 0.00 0.00 0.00 56 1031.0
20200224001711 16 28 0.0 0.0 0.00 0.00 0.00 46 1031.1
20200223234527 16 28 0.0 0.0 0.00 0.00 0.00 52 1031.2
20200223233216 17 28 0.0 0.0 0.00 0.00 0.00 49 1031.2
20200223231535 17 28 0.0 3.2 0.00 0.00 0.00 44 1031.3
20200223230134 18 28 0.0 8.0 0.00 0.00 0.00 40 1031.3
20200223224508 18 360 6.4 16.1 0.00 0.00 0.00 37 1031.1
20200223223053 18 360 9.7 17.7 0.00 0.00 0.00 37 1031.0
20200223221605 18 31 9.7 17.7 0.00 0.00 0.00 38 1031.0
20200223220140 18 5 6.4 16.1 0.00 0.00 0.00 38 1031.1
20200223213034 18 360 9.7 19.3 0.00 0.00 0.00 40 1031.0
20200223211509 18 360 11.3 19.3 0.00 0.00 0.00 41 1031.0
20200223210119 18 34 11.3 20.9 0.00 0.00 0.00 42 1030.9
20200223204647 19 22 11.3 20.9 0.00 0.00 0.00 41 1030.9
20200223203031 18 355 11.3 19.3 0.00 0.00 0.00 42 1031.0
20200223201638 19 20 9.7 19.3 0.00 0.00 0.00 42 1031.0
20200223200040 19 24 9.7 17.7 0.00 0.00 0.00 42 1031.1
20200223194550 19 5 8.0 16.1 0.00 0.00 0.00 40 1031.2
20200223193057 19 5 9.7 16.1 0.00 0.00 0.00 40 1031.2
20200223191640 19 17 8.0 17.7 0.00 0.00 0.00 39 1031.1